Theta_e
331 328 325 325 325 325 326 327 327 328 326 325 324 324 324 327 326 325 325 325 325 325 325 325 323 322 323 323 322 320 318 315 312 313 319 316 316 315
330 328 327 325 326 326 327 327 327 327 326 325 325 326 325 324 323 326 324 325 325 324 324 324 323 323 321 320 320 319 318 315 313 311 310 311 316 317
326 327 327 326 325 325 326 326 327 327 326 325 326 326 325 324 324 324 323 324 325 324 324 324 324 323 322 321 320 318 317 316 314 314 310 309 311 313
324 326 326 326 326 326 325 325 326 326 326 326 326 326 326 326 325 325 325 324 325 324 324 324 323 322 322 322 321 319 318 317 316 315 313 310 308 311
321 325 327 327 326 326 325 325 326 326 326 326 326 326 325 325 325 325 324 324 324 323 323 322 321 320 320 320 320 320 320 319 321 318 314 312 310 308
321 321 325 326 326 326 326 325 326 324 324 324 325 325 325 323 321 319 317 318 319 321 321 322 321 319 319 319 318 318 318 317 318 317 315 315 312 309
320 320 322 324 325 325 325 325 325 325 323 323 323 323 320 316 317 320 318 319 318 318 318 318 318 316 316 317 315 314 314 316 316 316 314 314 314 310
319 319 320 322 325 323 324 325 323 323 323 323 321 319 318 317 315 314 314 313 308 315 313 313 314 313 313 313 312 312 311 311 311 311 311 310 309 308
318 319 319 319 320 319 318 315 315 315 313 313 310 307 307 306 306 307 308 308 310 311 310 309 311 311 311 311 311 310 309 309 308 308 308 308 308 308
315 314 313 312 312 314 311 310 306 305 305 305 304 303 303 303 303 304 304 303 304 306 306 302 306 306 306 306 306 306 305 305 305 305 305 305 306 307
304 305 304 304 303 305 305 304 302 301 301 300 301 301 300 300 301 302 301 300 299 302 301 300 300 301 302 303 305 304 304 303 302 302 303 303 305 306
299 299 299 299 299 300 301 300 299 298 299 298 298 298 297 297 297 297 296 295 296 297 297 297 298 298 298 300 301 301 301 303 302 302 302 303 303 304
296 296 296 296 295 295 295 295 296 297 296 296 295 295 295 295 294 294 294 293 293 294 295 294 295 295 296 297 297 298 298 299 300 300 301 301 302 303
295 294 293 292 292 292 291 292 292 292 291 291 290 289 289 290 290 291 291 291 290 291 292 292 291 293 293 293 293 294 294 295 297 298 298 299 299 302
293 292 291 290 289 289 289 289 288 288 288 287 287 287 287 287 287 288 288 288 288 288 289 290 291 291 291 291 291 291 292 292 293 294 294 295 296 297
292 289 289 288 287 286 286 286 286 286 285 285 285 285 286 286 286 286 287 287 288 288 287 288 288 288 288 289 289 289 290 290 291 291 292 293 294 294
287 286 285 285 285 285 284 284 284 284 283 284 284 284 285 285 285 286 286 286 287 287 287 287 287 287 287 287 287 287 288 289 289 290 291 291 291 291
286 286 285 285 284 283 283 283 283 282 282 283 283 282 284 284 285 284 285 286 286 287 287 287 287 287 287 287 288 287 287 287 288 289 289 289 289 290
286 285 285 284 283 283 282 281 281 281 281 281 281 281 281 282 282 283 284 285 285 286 286 286 287 287 286 285 286 287 286 287 288 288 288 289 289 290
285 284 284 283 283 282 281 280 279 279 280 279 279 279 279 279 280 281 282 283 284 285 285 285 286 287 287 287 286 287 287 287 287 287 288 289 288 288
284 284 283 283 282 281 280 279 278 279 279 278 278 278 278 278 278 279 280 281 282 283 284 285 285 286 286 287 286 286 286 286 286 286 286 287 287 287
283 283 283 282 281 280 279 278 278 278 279 278 278 277 277 278 278 279 279 280 281 281 282 283 284 284 285 286 286 285 285 285 285 285 285 286 286 285
283 282 282 281 281 279 279 278 278 278 278 278 277 277 277 277 278 279 279 280 281 281 282 283 284 284 285 285 286 285 285 285 284 284 284 284 285 285
Wind_Speed
27 34 34 29 29 33 29 25 14 6 6 13 14 26 27 24 27 34 30 32 30 29 31 31 31 29 30 31 30 29 22 21 19 20 24 25 22 21
31 33 35 29 31 30 26 29 27 19 6 13 23 27 24 26 28 30 34 36 32 36 30 28 31 30 32 33 32 33 29 24 22 24 26 27 23 22
31 28 26 30 31 30 32 29 26 23 13 21 27 28 27 29 34 34 35 39 42 37 33 31 29 30 31 35 36 34 32 30 29 26 29 27 25 25
30 28 30 31 32 31 30 29 26 27 25 19 25 27 33 34 33 39 45 44 42 40 36 34 32 32 31 35 36 37 36 34 32 33 33 32 29 27
29 28 28 29 30 27 29 27 28 28 29 26 24 24 27 31 35 38 43 42 42 39 34 33 33 33 34 37 40 39 39 40 38 39 38 37 34 32
31 32 30 30 31 28 28 30 30 24 22 23 22 18 21 24 28 23 21 27 31 29 32 33 33 37 39 40 42 44 44 45 41 41 44 41 39 36
29 29 31 33 33 31 28 27 21 23 20 19 18 16 11 8 11 12 19 25 27 27 31 33 37 38 39 39 42 45 46 45 41 44 50 49 45 40
23 24 22 24 26 22 18 21 20 20 17 16 15 11 10 9 8 10 14 8 3 12 18 24 26 27 28 32 34 37 38 39 41 45 48 52 47 43
11 8 8 5 7 7 7 5 4 4 3 3 2 1 5 7 9 10 8 7 8 14 17 15 18 23 26 27 27 29 31 32 34 40 44 47 48 46
8 9 9 7 6 8 6 9 9 11 11 10 7 6 6 6 6 7 8 10 12 15 12 5 12 22 25 26 27 28 29 30 32 34 36 41 47 46
20 17 15 15 12 12 12 14 12 13 12 10 8 6 4 5 7 7 7 10 3 4 11 7 5 15 20 26 21 20 22 23 25 28 29 32 39 42
24 22 20 17 15 14 14 12 12 10 9 8 9 9 10 11 11 10 8 7 4 3 2 8 7 9 7 8 7 19 23 23 24 23 27 31 32 36
21 20 18 16 17 17 15 13 12 6 7 7 8 9 10 11 13 14 13 11 9 7 10 9 7 13 10 10 10 17 23 23 24 26 26 27 29 34
19 17 15 14 16 16 16 14 13 11 12 12 13 14 15 16 15 14 12 10 11 13 16 15 13 13 16 17 11 16 22 22 23 25 26 28 29 32
16 13 12 12 12 14 14 13 14 14 13 12 10 10 12 14 15 17 18 17 17 16 13 12 17 21 22 17 18 21 20 19 25 28 27 27 30 25
10 12 12 13 12 13 13 13 13 12 12 13 11 12 12 13 13 14 15 18 17 14 16 14 15 18 23 22 22 24 21 14 19 27 27 24 25 31
13 13 12 12 13 12 12 12 12 12 14 11 9 13 12 14 15 16 17 17 12 14 16 20 20 19 21 23 21 22 24 23 22 23 25 24 24 26
9 10 10 10 10 9 9 8 9 9 9 10 11 14 16 18 20 22 21 19 17 18 19 21 25 22 18 19 17 22 20 21 22 23 24 18 16 18
9 8 9 8 8 8 8 7 8 10 10 12 15 16 16 18 17 19 19 18 18 19 19 22 20 15 8 8 15 15 19 19 20 18 19 19 12 11
4 4 4 4 5 6 6 8 9 10 12 13 14 15 15 16 16 16 16 17 19 19 19 20 18 17 14 10 11 21 16 19 20 17 15 18 16 10
2 2 3 3 4 5 4 5 6 7 9 11 12 13 13 13 14 14 16 17 19 18 18 18 21 24 26 23 7 15 22 17 17 19 12 11 6 5
5 5 5 5 5 6 5 6 7 7 7 9 10 11 11 11 13 15 16 16 17 20 21 23 25 27 20 15 15 15 16 17 16 13 10 10 4 2
8 9 8 8 8 7 5 7 6 7 6 8 10 11 11 16 16 17 18 19 20 20 21 22 24 23 22 20 19 14 16 16 13 9 10 8 5 4
Wind_Direction
232 229 226 225 225 230 234 236 224 242 234 240 248 252 251 252 264 274 274 269 268 264 262 263 257 251 249 251 253 253 255 254 252 253 246 258 260 263
236 235 234 231 226 228 230 230 228 226 243 243 250 242 241 252 263 253 269 266 265 260 256 257 256 257 253 255 255 252 259 254 258 259 256 257 255 255
237 235 229 236 229 234 234 237 227 220 230 246 258 256 258 256 255 258 264 268 264 258 258 262 260 256 253 252 256 256 258 262 264 264 262 262 257 254
243 235 230 230 231 229 232 228 228 230 233 239 243 251 259 262 260 265 268 265 256 256 256 261 262 262 257 255 255 255 258 261 264 268 267 265 261 252
249 231 226 224 227 232 227 223 223 226 231 240 249 248 253 262 264 263 260 259 255 253 256 260 264 268 268 266 263 262 259 258 264 264 260 263 263 257
253 244 239 232 227 232 229 236 234 227 230 239 252 255 261 260 255 253 256 258 263 262 263 263 267 274 275 270 266 266 267 268 269 267 263 262 261 260
256 245 244 247 252 250 236 234 236 238 234 239 248 257 227 217 223 266 257 273 271 272 278 274 273 276 276 274 270 266 268 271 271 271 269 262 259 258
249 248 249 245 240 255 249 248 252 237 240 246 255 234 238 252 288 291 283 266 276 289 272 273 277 279 284 282 282 278 275 276 281 277 273 267 259 257
256 209 198 219 236 230 228 178 167 165 142 205 122 58 320 326 318 316 306 289 271 281 297 271 279 278 287 287 288 286 285 282 278 273 270 263 259 256
151 137 131 121 151 172 153 127 86 77 66 63 63 56 27 353 345 334 312 301 296 294 293 270 278 286 294 291 290 289 287 284 283 279 275 270 260 254
102 101 103 94 86 102 114 96 84 68 69 68 60 52 34 5 357 338 338 346 316 289 310 275 288 309 307 305 302 296 296 293 290 285 280 269 260 255
94 86 83 86 83 78 84 83 79 61 55 52 53 46 38 31 20 17 6 353 318 300 2 331 310 331 306 284 294 312 307 300 291 280 275 271 270 256
86 80 74 74 74 73 75 69 64 55 42 37 35 25 17 10 12 10 2 353 329 275 290 312 289 297 274 291 290 292 293 292 285 278 279 274 271 255
100 97 90 83 77 73 72 71 69 73 62 51 41 28 16 7 356 349 344 336 318 299 303 300 279 282 287 290 293 297 299 293 290 285 283 284 273 262
109 110 106 95 87 76 67 66 65 62 56 49 34 13 4 355 349 348 345 341 334 324 322 309 299 298 286 273 282 287 295 293 287 287 286 283 277 272
111 101 96 91 89 91 85 79 70 59 51 46 31 13 360 353 348 349 343 341 336 330 326 319 308 303 287 282 278 280 282 272 282 285 287 286 282 263
119 109 101 91 83 75 66 60 57 43 39 35 23 9 358 360 355 357 351 346 332 320 319 327 318 311 303 288 279 278 280 278 277 282 287 285 287 273
96 87 79 73 70 66 67 67 55 39 31 28 16 5 5 2 356 350 351 346 334 326 323 322 322 319 311 308 285 273 281 276 283 284 284 265 273 275
99 99 90 79 71 64 55 47 32 25 18 18 11 9 1 356 353 348 344 338 327 318 316 321 314 306 301 294 294 287 270 288 291 286 276 263 259 279
81 91 85 66 39 23 27 21 11 22 16 9 6 2 0 357 348 343 337 327 319 315 315 318 318 312 288 285 288 294 289 283 282 284 281 278 274 272
318 323 335 336 352 8 12 1 357 359 359 2 360 359 358 349 342 339 327 318 316 316 310 310 312 319 313 304 280 275 289 296 287 277 287 259 261 264
266 272 278 289 293 308 328 335 341 345 349 348 349 350 345 340 332 327 320 316 313 308 304 309 319 324 315 296 285 280 285 305 310 280 267 270 245 272
270 273 274 276 279 294 292 291 300 313 328 325 333 331 329 329 332 330 318 304 305 305 309 312 311 314 310 298 286 285 293 291 297 292 266 265 270 270